GM4ZUK-13 Weather Reports


time (UTC)temp
C
wind
direction
speed
KPH
gust
KPH
rain 1hr
cm
rain 24hr
cm
rain mn
cm
humidity
%
barometer
mb
20260508013659 8 177 6.4 12.9 0.00 0.00 0.00 88 1019.1
20260508012757 7 194 3.2 6.4 0.00 0.00 0.00 89 1019.1
20260508011859 7 202 0.0 6.4 0.00 0.00 0.00 88 1019.2
20260508010959 7 174 0.0 6.4 0.00 0.00 0.00 87 1019.3
20260508010059 8 179 3.2 9.7 0.00 0.00 0.00 87 1019.1
20260508005157 8 177 3.2 12.9 0.00 0.00 0.00 86 1019.4
20260508004257 8 174 3.2 11.3 0.00 0.00 0.00 85 1019.0
20260508003400 8 164 3.2 11.3 0.00 0.00 0.00 85 1019.4
20260508002459 9 161 4.8 12.9 0.00 0.00 0.00 84 1019.0
20260508001559 8 163 6.4 9.7 0.00 0.00 0.00 86 1019.0
20260508000657 8 180 3.2 6.4 0.00 0.00 0.00 87 1019.2
20260507235759 8 179 3.2 11.3 0.00 0.00 0.00 87 1019.2
20260507234859 8 182 1.6 11.3 0.00 0.00 0.00 87 1019.1
20260507233957 8 172 3.2 12.9 0.00 0.00 0.00 87 1019.1
20260507233059 8 169 6.4 12.9 0.00 0.00 0.00 87 1019.2
20260507232159 8 176 3.2 11.3 0.00 0.00 0.00 89 1019.0
20260507231259 8 157 1.6 3.2 0.00 0.00 0.00 90 1019.1
20260507230359 7 157 0.0 3.2 0.00 0.00 0.00 91 1019.3
20260507225457 7 160 0.0 3.2 0.00 0.00 0.00 90 1019.0
20260507224557 7 180 0.0 3.2 0.00 0.00 0.00 89 1019.3
20260507223657 8 0 0.0 0.0 0.00 0.00 0.00 88 1019.4
20260507223008 8 180 0.0 3.2 0.00 0.00 0.00 87 1019.2
20260507221858 8 187 1.6 11.3 0.00 0.00 0.00 87 1019.2
20260507220957 8 185 1.6 9.7 0.00 0.00 0.00 86 1019.0
20260507220059 9 163 4.8 11.3 0.00 0.00 0.00 85 1019.1
20260507215407 9 163 4.8 11.3 0.00 0.00 0.00 84 1019.1
20260507214259 10 154 3.2 12.9 0.00 0.00 0.00 83 1019.2
20260507213357 10 149 4.8 12.9 0.00 0.00 0.00 85 1019.2
20260507212710 9 158 3.2 6.4 0.00 0.00 0.00 87 1019.2
20260507211559 9 138 3.2 9.7 0.00 0.00 0.00 89 1019.4
20260507210657 9 137 3.2 6.4 0.00 0.00 0.00 89 1019.3
20260507210012 8 131 3.2 6.4 0.00 0.00 0.00 90 1019.3
20260507204859 9 131 3.2 11.3 0.00 0.00 0.00 90 1019.1
20260507203959 9 127 3.2 6.4 0.00 0.00 0.00 89 1019.0
20260507203057 9 131 3.2 6.4 0.00 0.00 0.00 89 1019.2
20260507202157 9 140 3.2 6.4 0.00 0.00 0.00 89 1019.2
20260507201257 8 142 3.2 12.9 0.00 0.00 0.00 89 1018.9
20260507200401 9 130 6.4 12.9 0.00 0.00 0.00 89 1019.0
20260507195708 9 124 6.4 14.5 0.00 0.00 0.00 89 1018.9
20260507194557 9 138 6.4 11.3 0.00 0.00 0.00 89 1018.9
20260507193659 9 137 3.2 11.3 0.00 0.00 0.00 89 1019.1
20260507192758 9 133 6.4 11.3 0.00 0.00 0.00 89 1018.7
20260507191857 9 137 3.2 12.9 0.00 0.00 0.00 89 1018.8
20260507190959 9 136 6.4 12.9 0.00 0.00 0.00 88 1019.1
20260507190059 10 151 6.4 9.7 0.00 0.00 0.00 88 1019.0
20260507185159 10 143 6.4 14.5 0.00 0.00 0.00 88 1018.9
20260507184259 9 149 8.0 12.9 0.00 0.00 0.00 88 1018.9
20260507183609 9 144 3.2 12.9 0.00 0.00 0.00 87 1018.9
20260507182713 10 136 4.8 17.7 0.00 0.00 0.00 87 1019.2
20260507181559 9 141 4.8 11.3 0.00 0.00 0.00 87 1018.8
20260507180657 9 139 3.2 11.3 0.00 0.00 0.00 87 1019.1
20260507175757 9 124 3.2 9.7 0.00 0.00 0.00 87 1019.0
20260507174857 9 126 3.2 11.3 0.00 0.00 0.00 88 1019.0
20260507173958 9 135 3.2 17.7 0.00 0.00 0.00 87 1019.0
20260507173057 9 130 4.8 9.7 0.00 0.00 0.00 85 1019.2
20260507172157 9 138 4.8 9.7 0.00 0.00 0.00 85 1019.2
20260507171259 9 128 4.8 9.7 0.00 0.00 0.00 85 1019.1
20260507170359 9 143 4.8 9.7 0.00 0.00 0.00 86 1019.2
20260507165459 10 139 4.8 11.3 0.00 0.00 0.00 86 1019.5
20260507164807 10 151 4.8 11.3 0.00 0.00 0.00 85 1019.4
20260507163657 10 155 4.8 12.9 0.00 0.00 0.00 83 1019.6
20260507162759 10 132 4.8 12.9 0.00 0.00 0.00 82 1019.3
20260507161857 10 127 9.7 17.7 0.00 0.00 0.00 83 1019.3
20260507160957 10 135 9.7 17.7 0.00 0.00 0.00 82 1019.1
20260507160059 10 145 3.2 14.5 0.00 0.00 0.00 82 1019.0
20260507155159 10 141 6.4 17.7 0.00 0.00 0.00 81 1019.2
20260507154509 10 116 6.4 12.9 0.00 0.00 0.00 80 1019.5
20260507153357 11 126 6.4 12.9 0.00 0.00 0.00 79 1019.3
20260507152457 11 133 6.4 12.9 0.00 0.00 0.00 78 1019.0
20260507151557 12 141 6.4 17.7 0.00 0.00 0.00 77 1019.1
20260507150657 12 127 6.4 17.7 0.00 0.00 0.00 80 1019.5
20260507145757 11 146 12.9 17.7 0.00 0.00 0.00 80 1019.2
20260507144859 11 133 12.9 17.7 0.00 0.00 0.00 80 1019.7
20260507143959 11 133 4.8 17.7 0.00 0.00 0.00 79 1019.7
20260507143307 12 128 6.4 33.8 0.00 0.00 0.00 78 1019.4
20260507142159 11 136 17.7 33.8 0.00 0.00 0.00 76 1019.6
20260507141257 11 128 6.4 24.1 0.00 0.00 0.00 79 1019.6
20260507140359 10 134 16.1 25.7 0.00 0.00 0.00 82 1019.6
20260507135457 10 139 9.7 25.7 0.00 0.00 0.00 82 1019.8
20260507134559 10 130 8.0 17.7 0.00 0.00 0.00 82 1019.8
20260507133659 10 153 3.2 14.5 0.00 0.00 0.00 80 1019.9
20260507132757 10 137 6.4 12.9 0.00 0.00 0.00 80 1019.9
20260507131857 10 148 6.4 20.9 0.00 0.00 0.00 80 1020.0
20260507130957 10 141 11.3 20.9 0.00 0.00 0.00 79 1020.2
20260507130059 10 145 4.8 17.7 0.00 0.00 0.00 78 1020.3
20260507125408 10 133 11.3 17.7 0.00 0.00 0.00 77 1020.2
20260507124257 11 168 6.4 17.7 0.00 0.00 0.00 75 1020.0
20260507123402 12 167 12.9 17.7 0.00 0.00 0.00 70 1019.9
20260507122457 13 161 8.0 14.5 0.00 0.00 0.00 73 1020.2
20260507121559 12 146 9.7 17.7 0.00 0.00 0.00 72 1020.1
20260507120657 11 135 12.9 17.7 0.00 0.00 0.00 70 1020.2
20260507115759 12 125 6.4 20.9 0.00 0.00 0.00 72 1020.0
20260507114859 12 130 12.9 20.9 0.00 0.00 0.00 70 1020.0
20260507113957 12 158 6.4 24.1 0.00 0.00 0.00 71 1020.2
20260507113059 12 157 4.8 14.5 0.00 0.00 0.00 71 1020.0
20260507112157 11 137 4.8 14.5 0.00 0.00 0.00 70 1020.1
20260507111257 12 126 3.2 12.9 0.00 0.00 0.00 69 1019.8
20260507110359 11 132 1.6 20.9 0.00 0.00 0.00 71 1020.1
20260507105709 11 122 3.2 20.9 0.00 0.00 0.00 70 1020.3
20260507104557 12 116 3.2 12.9 0.00 0.00 0.00 69 1020.3
20260507103657 11 122 4.8 14.5 0.00 0.00 0.00 70 1020.4
20260507102757 11 127 8.0 17.7 0.00 0.00 0.00 72 1020.6
20260507102113 11 134 8.0 17.7 0.00 0.00 0.00 70 1020.4
20260507101210 11 135 8.0 14.5 0.00 0.00 0.00 72 1020.6
20260507100057 11 125 6.4 17.7 0.00 0.00 0.00 72 1020.4
20260507095159 11 147 6.4 12.9 0.00 0.00 0.00 72 1020.6
20260507094259 10 150 6.4 11.3 0.00 0.00 0.00 73 1020.4
20260507093359 10 131 6.4 17.7 0.00 0.00 0.00 75 1020.4
20260507092459 11 125 8.0 14.5 0.00 0.00 0.00 74 1020.7
20260507091557 11 129 8.0 20.9 0.00 0.00 0.00 73 1020.7
20260507090659 10 108 12.9 20.9 0.00 0.00 0.00 73 1020.7
20260507085759 10 135 8.0 22.5 0.00 0.00 0.00 74 1020.8
20260507084859 10 147 12.9 17.7 0.00 0.00 0.00 74 1020.8
20260507084209 10 144 9.7 14.5 0.00 0.00 0.00 74 1020.7
20260507083057 10 134 6.4 14.5 0.00 0.00 0.00 76 1020.7
20260507082159 9 121 6.4 17.7 0.00 0.00 0.00 76 1020.8
20260507081259 9 131 8.0 17.7 0.00 0.00 0.00 76 1020.8
20260507080608 10 143 6.4 17.7 0.00 0.00 0.00 76 1020.8
20260507075459 10 149 6.4 20.9 0.00 0.00 0.00 75 1021.0
20260507074559 9 147 9.7 17.7 0.00 0.00 0.00 74 1020.6
20260507073657 10 154 8.0 17.7 0.00 0.00 0.00 72 1020.7
20260507072759 10 146 9.7 14.5 0.00 0.00 0.00 74 1020.8
20260507071859 10 133 9.7 14.5 0.00 0.00 0.00 75 1020.8
20260507070957 10 149 6.4 12.9 0.00 0.00 0.00 76 1020.7
20260507070057 9 136 6.4 14.5 0.00 0.00 0.00 78 1021.0
20260507065157 8 142 6.4 11.3 0.00 0.00 0.00 80 1020.9
20260507064259 8 136 6.4 14.5 0.00 0.00 0.00 79 1021.2
20260507063357 8 136 3.2 9.7 0.00 0.00 0.00 81 1021.2
20260507062457 8 131 4.8 12.9 0.00 0.00 0.00 82 1021.0
20260507061557 7 132 6.4 11.3 0.00 0.00 0.00 83 1021.1
20260507060657 7 125 3.2 9.7 0.00 0.00 0.00 83 1021.2
20260507055800 7 135 1.6 11.3 0.00 0.00 0.00 83 1021.1
20260507054858 7 122 4.8 11.3 0.00 0.00 0.00 83 1021.0
20260507053957 6 125 3.2 6.4 0.00 0.00 0.00 84 1021.1
20260507053059 6 132 3.2 6.4 0.00 0.00 0.00 83 1021.1
20260507052157 6 135 1.6 6.4 0.00 0.00 0.00 82 1021.2
20260507051508 6 135 1.6 6.4 0.00 0.00 0.00 83 1021.3
20260507050359 6 0 0.0 0.0 0.00 0.00 0.00 84 1021.2
20260507045459 6 112 0.0 6.4 0.00 0.00 0.00 84 1021.4
20260507044557 5 112 0.0 3.2 0.00 0.00 0.00 85 1021.2
20260507043659 5 112 0.0 3.2 0.00 0.00 0.00 85 1021.2
20260507042757 5 112 0.0 3.2 0.00 0.00 0.00 83 1021.4
20260507041859 5 112 3.2 3.2 0.00 0.00 0.00 83 1021.4
20260507041209 6 112 0.0 6.4 0.00 0.00 0.00 82 1021.6
20260507040059 6 129 1.6 6.4 0.00 0.00 0.00 81 1021.2
20260507035159 6 135 3.2 6.4 0.00 0.00 0.00 81 1021.4
20260507034259 6 134 1.6 6.4 0.00 0.00 0.00 81 1021.5
20260507033608 6 116 3.2 6.4 0.00 0.00 0.00 81 1021.4
20260507032711 6 118 3.2 9.7 0.00 0.00 0.00 81 1021.4
20260507031559 6 135 6.4 11.3 0.00 0.00 0.00 81 1021.5
20260507030700 6 126 3.2 6.4 0.00 0.00 0.00 81 1021.5
20260507030008 6 92 3.2 6.4 0.00 0.00 0.00 81 1021.6
20260507024859 6 22 0.0 6.4 0.00 0.00 0.00 80 1021.5
20260507023957 6 22 1.6 6.4 0.00 0.00 0.00 80 1021.6
20260507023057 6 22 0.0 3.2 0.00 0.00 0.00 79 1021.6
20260507022159 6 41 0.0 6.4 0.00 0.00 0.00 79 1021.8
20260507021259 6 105 3.2 6.4 0.00 0.00 0.00 79 1021.6
20260507020357 6 97 0.0 6.4 0.00 0.00 0.00 79 1021.6
20260507014559 6 109 0.0 6.4 0.00 0.00 0.00 79 1021.5